Regional Weather Roundup
Issued by NWS

Home | Current Version | Previous Version | Text Only | Print | Product List | Glossary On
Versions: 1 2 3 4 5 6 7 8 9 10 11 12 13 14 15 16 17 18 19 20 21 22 23 24 25 26 27
000
ASUS46 KPQR 232210
RWROR

OREGON REGIONAL WEATHER ROUNDUP
NATIONAL WEATHER SERVICE PORTLAND OR
200 PM PST THU FEB 23 2017

NOTE: "FAIR" INDICATES FEW OR NO CLOUDS BELOW 12,000 FEET WITH
NO SIGNIFICANT WEATHER AND/OR OBSTRUCTIONS TO VISIBILITY.

ORZ001>013-232300-
NORTHWEST OREGON


CITY           SKY/WX    TMP DP  RH WIND       PRES   REMARKS
ASTORIA        SUNNY     47  33  58 W10       30.25F
PORTLAND       FLURRIES  42  33  70 NW6       30.26F
VANCOUVER WA   PTSUNNY   45  34  65 W7        30.25F
SCAPPOOSE      MOSUNNY   40  38  93 CALM      30.25F
HILLSBORO      PTSUNNY   41  35  79 CALM      30.25F
AURORA         CLOUDY    44  33  65 SW7       30.27S
MCMINNVILLE    MOSUNNY   44  31  60 S7        30.26F
SALEM          PTSUNNY   45  31  58 SW7       30.25F
CORVALLIS        N/A     43  36  75 W13       30.26S
EUGENE         PTSUNNY   44  31  60 S5        30.26F
$$

ORZ021-028-232300-
SOUTHWEST OREGON


CITY           SKY/WX    TMP DP  RH WIND       PRES   REMARKS
NORTH BEND     MOSUNNY   46  36  66 W8        30.31F
BROOKINGS      PTSUNNY   47  35  63 W8G16     30.27F
ROSEBURG       MOSUNNY   44  31  60 NE5       30.27F
SEXTON SUMMIT  PTSUNNY   27  26  96 VRB3      30.13S
MEDFORD        PTSUNNY   42  26  53 W6        30.22F
$$

ORZ014>016-041-232300-
COLUMBIA GORGE


CITY           SKY/WX    TMP DP  RH WIND       PRES   REMARKS
TROUTDALE      PTSUNNY   42  30  62 S6        30.26S
THE DALLES     SUNNY     49  27  42 NW16      30.19S
$$

ORZ029>031-041-044-049-050-061>064-502-503-505>511-232300-
EASTERN OREGON


CITY           SKY/WX    TMP DP  RH WIND       PRES   REMARKS
REDMOND        FLURRIES  38  17  42 NW10      30.08F WCI  31
BEND           MOSUNNY   36  14  41 NW10      30.07S WCI  28
PRINEVILLE     MIX PCPN  34  16  47 NW10      30.08S WCI  26
KLAMATH FALLS  MOSUNNY   31  17  56 W5        30.07F WCI  26
LAKEVIEW       CLOUDY    25  18  74 CALM      30.04F VSB 1/2
HERMISTON      SUNNY     45  23  42 VRB3      30.16F
PENDLETON      PTSUNNY   41  27  57 W8        30.12F
JOHN DAY       CLOUDY    32  24  71 W6        30.03S WCI  26
MEACHAM        CLOUDY    29  20  69 VRB5      30.03S WCI  24
LA GRANDE      CLOUDY    37  19  48 NW20      30.05S WCI  27
BAKER CITY     PTSUNNY   33  17  51 NW22G29   30.01S WCI  21
BURNS          CLOUDY    30  16  56 W17       30.00S WCI  18
ROME             N/A     32  20  61 W14       29.96F WCI  22
ONTARIO        CLOUDY    36  24  62 NW18G26   29.99S WCI  26
$$




USA.gov is the U.S. government's official web portal to all federal, state and local government web resources and services.